Regional Weather Roundup
Issued by NWS Raleigh/Durham, NC

Home | Current Version | Previous Version | Text Only | Print | Product List | Glossary On
Versions: 1 2 3 4 5 6 7 8 9 10 11 12 13 14 15 16 17 18 19 20 21 22 23 24 25 26 27 28 29 30 31 32 33 34 35 36 37 38 39 40 41 42 43 44 45 46 47 48 49 50
000
ASUS42 KRAH 211810
RWRRAH
NORTH CAROLINA WEATHER ROUNDUP
NATIONAL WEATHER SERVICE RALEIGH NC
100 PM EST WED NOV 21 2018

NOTE: "FAIR" INDICATES FEW OR NO CLOUDS BELOW 12,000 FEET WITH NO
SIGNIFICANT WEATHER AND/OR OBSTRUCTIONS TO VISIBILITY.

NCZ001-053-055-056-065-067-211900-
WESTERN NORTH CAROLINA

CITY           SKY/WX    TMP DP  RH WIND       PRES   REMARKS
ASHEVILLE      FAIR      50  27  40 N13       30.21F
JEFFERSON      FAIR      44  19  36 NW10G20   30.16F
MORGANTON      FAIR      58  18  20 W3        30.21F
HICKORY        FAIR      55  24  30 CALM      30.18F
RUTHERFORDTON  NOT AVBL
MOUNT AIRY     FAIR      55  21  26 SW6       30.19F
BOONE          FAIR      42  12  28 NW17G26   30.19F
$$

NCZ021-022-025-041-071-084-088-211900-
CENTRAL NORTH CAROLINA

CITY           SKY/WX    TMP DP  RH WIND       PRES   REMARKS
CHARLOTTE      FAIR      56  33  42 W5        30.21F
GREENSBORO     FAIR      53  25  33 W12       30.18F
WINSTON-SALEM  FAIR      52  25  35 MISG      30.20F
RALEIGH-DURHAM FAIR      54  30  40 VRB3      30.19F
FORT BRAGG     NOT AVBL
FAYETTEVILLE   FAIR      57  33  40 W8        30.19F
BURLINGTON     FAIR      55  25  31 SW8       30.18F
LAURINBURG     FAIR      57  34  41 VRB5      30.21F
$$

NCZ011-015-027-028-043-044-047-080-103-211900-
NORTHEASTERN NORTH CAROLINA

CITY           SKY/WX    TMP DP  RH WIND       PRES   REMARKS
ROCKY MT-WILSO FAIR      54  32  43 W7        30.18F
GREENVILLE     FAIR      55  32  41 W8        30.19F
WASHINGTON     FAIR      57  33  40 SW8       30.17F
ELIZABETH CITY FAIR      55  36  48 W8        30.15F
MANTEO         NOT AVBL
CAPE HATTERAS  FAIR      58  43  57 NW6       30.15F
$$

NCZ078-087-090-091-093-098-101-211900-
SOUTHEASTERN NORTH CAROLINA

CITY           SKY/WX    TMP DP  RH WIND       PRES   REMARKS
LUMBERTON      FAIR      59  36  42 W8        30.20F
GOLDSBORO      NOT AVBL
KINSTON        SUNNY     57  32  38 W7        30.19F
KENANSVILLE    FAIR      57  36  44 W8        30.19F
NEW BERN       FAIR      59  40  49 W9        30.18F
CHERRY POINT   FAIR      60  44  55 VRB5      30.17F
BEAUFORT       FAIR      60  44  55 NW7       30.16F
JACKSONVILLE   FAIR      59  41  51 NW9       30.17F
WILMINGTON     FAIR      61  41  47 NW8       30.18F
$$




USA.gov is the U.S. government's official web portal to all federal, state and local government web resources and services.